STARLINK-34435, 64602

Orbit data source: Space-Track

STARLINK-34435, 64602 is a payload satellite owned by SpaceX/Seattle (US) in LEO that was launched on Wed, 25 Jun 2025 UTC via an FALCON 9 launch vehicle from the Air Force Eastern Test Range (AFETR). Payload-class satellites include a variety of spacecraft equipped with specific instruments for various scientific and technological missions. These include communications satellites like Starlink; space stations such as the ISS; scientific satellites like the Hubble; Earth observation satellites from companies like Planet Labs, Umbra, and HawkEye 360; GPS; miniature CubeSats for education and research; and military/defense satellites.

Loading next visibility...
Identifier
64602, 2025-137J
Orbit
LEO
Country
Flag of USUS
Related business
Manufacturer
SpaceX/Seattle
Mission
Operational Commercial Communications
Bus & Motor
STARLINK V2MO, Unknown motor
Mass
575 kg wet, ~530 kg dry
Launch date (UTC)
2025-06-25 (1 year ago)
Launch vehicle
FALCON 9
Launch site
Air Force Eastern Test Range (AFETR)
Object type
Payload
Rocket body
Debris
Shape & HBR
Box + 2 Pan, 17.7 m
Radar Cross Section
36.964 m², Large (>1 m²)

Expand to show TLE details & history
Last TLE update: 10 hours ago

TLE from 10 hours ago
0 STARLINK-34435
1 64602U 25137J   26171.41668980  .00037272  00000-0  11136-2 0  9990
2 64602  53.1583 218.1191 0003280 115.2322 197.0124 15.34260337  5842
Epoch: 2026-06-20T10:00Z
TLE epoch observation values (Epoch: 2026-06-20T10:00:01.998Z)
Latitude
-36.54619°
Longitude
125.95643°
Altitude
477.015 km
Speed
7.626 km/s
True Right ascension
12h 18m 23s
True Declination
-36° 22' 30"
Sunlit
Object was in daylight at epoch
Visualization orbit readout
Latitude
Unknown
Longitude
Unknown
Altitude
Unknown
Speed
Unknown
Apparent Right ascension
Unknown
Apparent Declination
Unknown
Sunlit
N/A
Visualization observer readout
Local Sidereal Time
07:12:43
Azimuth
Unknown
Elevation
Unknown
Doppler factor
Unknown
Orbital elements
Apogee altitude
465.62 km
Perigee altitude
461.132 km
Semi-major axis
6,841.513 km
Eccentricity
0.00033
Inclination
53.1583°
RAAN
218.1191°
Arg. of periapsis
115.2322°
True anomaly
197.00141°
Mean anomaly
197.0124°
Eccentric anomaly
197.0069°
Mean motion
3.83544 °/min
Orbital period
93.86 mins
BSTAR
0.0011136
Loading maneuver chart data...
Computing Atmospheric mass density...
Loading historical data...
Loading historical data...
Loading historical data...
Loading historical data...
Loading historical data...
Loading historical data...
Loading historical data...

Documentation

Showing up to 5 results
|